Location: *
(37.9500°N, 27.3666°E)
Time: 01:27:58
(UTC+00:00)

X-37B - Visible Passes

Search period start: 16 April 2024 00:00
Search period end: 26 April 2024 00:00
Orbit: 277 x 277 km, 45.0° (Epoch: 01 November)

Date Brightness Start Highest point End Pass type
(mag) Time Alt. Az. Time Alt. Az. Time Alt. Az.
16 Apr 2.6 02:20:41 10° NW 02:22:25 17° N 02:24:10 10° NE visible
17 Apr 2.4 02:21:18 10° NW 02:23:16 21° NNE 02:25:14 10° ENE visible
18 Apr 1.9 02:21:57 11° NW 02:24:04 28° NNE 02:26:16 10° E visible
19 Apr 0.9 02:22:49 13° NW 02:24:50 46° NNE 02:27:12 10° E visible
20 Apr -0.2 02:23:54 18° WNW 02:25:32 88° SSW 02:27:58 10° ESE visible
21 Apr 0.4 02:25:16 27° W 02:26:10 40° SSW 02:28:30 10° SE visible
22 Apr 1.5 02:27:00 19° SSW 02:27:00 19° SSW 02:28:38 10° SSE visible
24 Apr 3.0 18:34:28 10° SW 18:34:28 10° SW 18:34:28 10° SW visible
25 Apr 1.4 18:35:04 10° WSW 18:36:35 33° WSW 18:36:35 33° WSW visible
